Location: Eastlake (historical)
(39.0077°N, 122.6678°W)
Time: 09:03:37
(UTC+00:00)

ASTRO E2 - Pass Details

Date: 25 November 2020
Orbit: 508 x 515 km, 31.4° (Epoch: 25 January)

Event Time Altitude Azimuth Distance (km) Brightness Sun altitude
Exits shadow 13:35:00 19° 224° (SW) 1,258 4.4 -17.3°
Maximum altitude 13:36:45 26° 184° (S) 1,023 4.3 -16.9°
Drops below altitude 10° 13:40:06 10° 127° (SE) 1,718 6.4 -16.3°
Sets 13:42:34 0° 114° (ESE) 2,605 8.0 -15.8°
